Location: Gloden
(48.4833°N, 15.3167°E)
Time: 00:55:30
(UTC+00:00)

Meteor 1-5 Rocket - Pass Details

Date: 15 December 2019
Orbit: 788 x 916 km, 81.2° (Epoch: 20 January)

Event Time Altitude Azimuth Distance (km) Brightness Sun altitude
Rises 05:09:08 0° 201° (SSW) 3,529 7.4 -14.7°
Reaches altitude 10° 05:11:39 10° 205° (SSW) 2,582 6.7 -14.3°
Maximum altitude 05:17:28 60° 285° (WNW) 1,017 4.3 -13.4°
Drops below altitude 10° 05:23:11 10° 5° (N) 2,529 6.5 -12.5°
Sets 05:25:38 0° 10° (N) 3,452 7.3 -12.2°
